sat.trackr.live / text

‹ back to catalog

STARLINK-35196

NORAD 66007 · 2025-232C

PAYLOAD ACTIVE UNKNOWN

§ Identity

Operator
Country
US
Launch date
2025-10-16
Launch site
AFETR
Launch vehicle
Mass (kg)
RCS (m²)

Purposes: comms

External: N2YO · Heavens-Above · Gunter

§ Orbital elements

Epoch: 2026-09-20T05:26:17.162592Z

Period
93.85 min
Inclination
53.1589°
Eccentricity
0.0001184
Mean motion
15.34381174 rev/d
Perigee alt
461.9 km
Apogee alt
463.6 km
Semi-major
6,840.9 km
B*
5.9955e-4
RAAN
278.6337°
Arg perigee
92.8288°
Mean anomaly
267.2850°
Rev number
5,323

§ Raw data

STARLINK-351961 66007U 25232C   26263.22658753  .00019922  00000+0  59955-3 0  99982 66007  53.1589 278.6337 0001184  92.8288 267.2850 15.34381174 53239

JSON: /api/v1/satellites/66007 · /tle

For live sub-satellite position, see the globe view (requires WebGL).

§ Visibility from observer

Set your observer location to see the next 7 days of passes ≥ 10°. The values pass through the URL so the page stays shareable.

No JS? Fill the form by hand. The geolocation button needs JavaScript.